User: anonymous   Login
Location: Barcelona
(41.3830°N, 2.1830°E)
Time: 09:29:40
(UTC+02:00)
Language:

BEESAT 2 - Orbit

View from above orbital plane
View from above orbital plane
View from above satellite
View from above satellite

Ground track
Ground track

The orbit data is extracted from the following two-line orbital elements,

1 39136U 13015G   19295.56501152 +.00000719 +00000-0 +45847-4 0  9992
2 39136 064.8697 356.8341 0029099 294.9294 064.8809 15.17083934358879
Epoch (UTC): 22 October 2019 13:33:36
Eccentricity: 0.0029099
inclination: 64.8697°
perigee height: 494 km
apogee height: 535 km
right ascension of ascending node: 356.8341°
argument of perigee: 294.9294°
revolutions per day: 15.17083934
mean anomaly at epoch: 64.8809°
orbit number at epoch: 35887

The dashed part of the orbit path shows where the satellite is in the earth's shadow,  

DLR